This is the latest recevied weather packets stored in our database for station/object WB9PAR. If no packets are shown the sender has not sent any weather packets the latest 10 day(s).
| Time | Temp. | Humidity | Pressure | Rain* | Wind** | Luminosity | Snow |
|---|---|---|---|---|---|---|---|
| 1788138059 | 76° F | 81% | 786.5 mmHg | 0 in | - | 0 W/m² | - |
| 1788137754 | 76° F | 80% | 786.6 mmHg | 0 in | - | 0 W/m² | - |
| 1788137454 | 76° F | 79% | 786.4 mmHg | 0 in | - | 0 W/m² | - |
| 1788137150 | 76° F | 78% | 786.5 mmHg | 0 in | - | 0 W/m² | - |
| 1788136845 | 76° F | 78% | 786.6 mmHg | 0 in | - | 0 W/m² | - |
| 1788136542 | 75° F | 80% | 786.5 mmHg | 0 in | - | 0 W/m² | - |
| 1788136237 | 76° F | 80% | 786.4 mmHg | 0 in | - | 0 W/m² | - |
| 1788135936 | 76° F | 79% | 786.4 mmHg | 0 in | - | 1 W/m² | - |
| 1788135631 | 77° F | 78% | 786.4 mmHg | 0 in | - | 2 W/m² | - |
| 1788135326 | 77° F | 77% | 786.5 mmHg | 0 in | - | 3 W/m² | - |
| 1788135023 | 78° F | 75% | 786.5 mmHg | 0 in | - | 5 W/m² | - |
| 1788134719 | 78° F | 74% | 786.4 mmHg | 0 in | - | 7 W/m² | - |
| 1788134419 | 79° F | 73% | 786.5 mmHg | 0 in | - | 11 W/m² | - |
| 1788134118 | 80° F | 72% | 786.5 mmHg | 0 in | - | 17 W/m² | - |
| 1788133813 | 81° F | 69% | 786.6 mmHg | 0 in | - | 25 W/m² | - |
| 1788133508 | 82° F | 69% | 786.6 mmHg | 0 in | - | 33 W/m² | - |
| 1788133203 | 82° F | 69% | 786.7 mmHg | 0 in | - | 41 W/m² | - |
| 1788132899 | 83° F | 64% | 786.4 mmHg | 0 in | - | 51 W/m² | - |
| 1788132594 | 83° F | 67% | 786.6 mmHg | 0 in | - | 61 W/m² | - |
| 1788132290 | 83° F | 66% | 786.6 mmHg | 0 in | - | 71 W/m² | - |
| 1788131987 | 84° F | 64% | 786.7 mmHg | 0 in | - | 74 W/m² | - |
| 1788131682 | 84° F | 63% | 786.6 mmHg | 0 in | - | 72 W/m² | - |
| 1788131381 | 85° F | 55% | 786.7 mmHg | 0 in | - | 69 W/m² | - |
| 1788131077 | 85° F | 57% | 786.5 mmHg | 0 in | - | 74 W/m² | - |
| 1788130776 | 85° F | 54% | 786.6 mmHg | 0 in | - | 74 W/m² | - |
* Rain latest hour (hover to see other rain measurements)
** Current wind speed in m/s (hover to see current wind gust speed)